EW8320 Weather Reports


Display with metric or nautical units.
time (UTC)temp
F
wind
direction
speed
MPH
gust
MPH
rain 1hr
in
rain 24hr
in
rain mn
in
humidity
%
barometer
mb
20260902233925 69 232 6.0 11.0 0.00 0.00 0.00 31 1012.4
20260902233823 69 275 2.0 5.0 0.00 0.00 0.00 31 1012.5
20260902231823 69 213 3.0 4.0 0.00 0.00 0.00 31 1012.1
20260902230922 70 242 5.0 12.0 0.00 0.00 0.00 28 1012.1
20260902225924 70 269 5.0 8.0 0.00 0.00 0.00 29 1012.1
20260902224925 71 251 5.0 8.0 0.00 0.00 0.00 27 1011.6
20260902223925 72 269 6.0 12.0 0.00 0.00 0.00 27 1011.7
20260902223023 72 218 2.0 5.0 0.00 0.00 0.00 27 1011.6
20260902221025 71 272 6.0 12.0 0.00 0.00 0.00 28 1011.8
20260902215024 70 315 0.0 1.0 0.00 0.00 0.00 35 1012.2
20260902214022 68 297 1.0 3.0 0.00 0.00 0.00 37 1012.3
20260902213023 68 341 2.0 5.0 0.00 0.00 0.00 38 1012.3
20260902212122 69 150 3.0 5.0 0.00 0.00 0.00 38 1012.5
20260902211125 69 107 0.0 2.0 0.00 0.00 0.00 37 1012.5
20260902210224 69 79 4.0 7.0 0.00 0.00 0.00 37 1012.3
20260902205224 69 83 5.0 6.0 0.00 0.00 0.00 38 1012.4
20260902204322 69 302 5.0 12.0 0.00 0.00 0.00 39 1012.6
20260902203324 68 91 4.0 6.0 0.00 0.00 0.00 38 1012.9
20260902202323 69 85 6.0 7.0 0.00 0.00 0.00 37 1012.6
20260902201323 69 51 1.0 3.0 0.00 0.00 0.00 39 1012.8
20260902195422 68 134 6.0 10.0 0.00 0.00 0.00 40 1013.0
20260902195324 68 105 2.0 5.0 0.00 0.00 0.00 40 1013.0
20260902193423 66 71 2.0 4.0 0.00 0.00 0.00 42 1013.1
20260902192522 65 346 4.0 6.0 0.00 0.00 0.00 42 1013.3
20260902185524 65 116 2.0 4.0 0.00 0.00 0.00 42 1013.6
20260902184523 66 22 3.0 4.0 0.00 0.00 0.00 42 1013.8
20260902183622 65 41 3.0 6.0 0.00 0.00 0.00 45 1013.8
20260902182623 63 146 1.0 3.0 0.00 0.00 0.00 46 1014.1
20260902180623 60 110 4.0 8.0 0.00 0.00 0.00 49 1014.4
20260902175722 61 129 5.0 10.0 0.00 0.00 0.00 51 1014.4
20260902174725 61 103 5.0 7.0 0.00 0.00 0.00 52 1014.4
20260902173723 60 53 2.0 8.0 0.00 0.00 0.00 56 1014.5
20260902172726 60 82 4.0 7.0 0.00 0.00 0.00 58 1014.6
20260902171822 58 97 2.0 6.0 0.00 0.00 0.00 60 1014.7
20260902170824 57 77 6.0 8.0 0.00 0.00 0.00 60 1014.7
20260902165922 57 96 6.0 9.0 0.00 0.00 0.00 60 1014.6
20260902164924 57 91 4.0 5.0 0.00 0.00 0.00 60 1014.6
20260902163924 57 90 3.0 5.0 0.00 0.00 0.00 62 1014.4
20260902162924 56 90 1.0 4.0 0.00 0.00 0.00 63 1014.4
20260902162023 56 108 3.0 5.0 0.00 0.00 0.00 66 1014.4
20260902161121 56 97 3.0 5.0 0.00 0.00 0.00 66 1014.3
20260902160122 54 69 3.0 4.0 0.00 0.00 0.00 70 1014.2
20260902154225 54 103 0.0 1.0 0.00 0.00 0.00 70 1014.1
20260902153323 53 334 0.0 2.0 0.00 0.00 0.00 71 1013.9
20260902152322 53 45 2.0 4.0 0.00 0.00 0.00 69 1014.0
20260902150323 53 45 2.0 3.0 0.00 0.00 0.00 69 1013.8
20260902145338 53 243 1.0 3.0 0.00 0.00 0.00 70 1014.0
20260902144324 53 225 4.0 8.0 0.00 0.00 0.00 71 1014.2
20260902143423 52 266 3.0 8.0 0.00 0.00 0.00 71 1014.0
20260902141523 53 190 6.0 10.0 0.00 0.00 0.00 68 1013.7
20260902141425 53 195 8.0 11.0 0.00 0.00 0.00 67 1013.9
20260902140424 52 254 3.0 7.0 0.00 0.00 0.00 70 1014.6
20260902135424 51 292 4.0 5.0 0.00 0.00 0.00 90 1013.8
20260902134424 52 108 6.0 10.0 0.00 0.00 0.00 100 1014.7
20260902132523 51 336 5.0 7.0 0.00 0.00 0.00 99 1015.0
20260902131541 51 67 0.0 1.0 0.00 0.00 0.00 99 1014.8
20260902125622 51 337 3.0 4.0 0.00 0.00 0.00 100 1014.4
20260902124624 52 277 1.0 3.0 0.00 0.00 0.00 98 1014.3
20260902123622 51 294 0.0 2.0 0.00 0.00 0.00 99 1014.3
20260902122625 50 274 2.0 3.0 0.00 0.00 0.00 99 1014.4
20260902120725 47 270 0.0 0.0 0.00 0.00 0.00 100 1014.1
20260902120623 47 270 0.0 0.0 0.00 0.00 0.00 100 1014.1
20260902114722 48 112 0.0 0.0 0.00 0.00 0.00 100 1013.9
20260902113724 47 270 0.0 0.0 0.00 0.00 0.00 100 1013.9
20260902111724 47 202 2.0 3.0 0.00 0.00 0.00 100 1013.7
20260902105824 48 217 2.0 4.0 0.00 0.00 0.00 99 1013.7
20260902104822 48 235 1.0 3.0 0.00 0.00 0.00 99 1013.9
20260902102825 45 229 1.0 3.0 0.00 0.00 0.00 98 1013.4
20260902100941 45 225 0.0 1.0 0.00 0.00 0.00 99 1013.2
20260902095923 45 202 1.0 2.0 0.00 0.00 0.00 92 1013.1
20260902094023 45 222 0.0 0.0 0.00 0.00 0.00 92 1013.2
20260902093024 44 225 0.0 0.0 0.00 0.00 0.00 79 1013.4
20260902091122 38 204 0.0 1.0 0.00 0.00 0.00 75 1013.3
20260902090124 42 202 0.0 0.0 0.00 0.00 0.00 74 1013.4
20260902085123 46 202 0.0 0.0 0.00 0.00 0.00 77 1013.4
20260902084126 47 202 0.0 0.0 0.00 0.00 0.00 77 1013.4
20260902083124 47 225 2.0 2.0 0.00 0.00 0.00 81 1013.1
20260902081124 48 247 0.0 0.0 0.00 0.00 0.00 70 1013.2
20260902080122 48 212 1.0 2.0 0.00 0.00 0.00 70 1013.0
20260902075124 48 253 0.0 1.0 0.00 0.00 0.00 68 1013.0
20260902074124 41 247 0.0 0.0 0.00 0.00 0.00 69 1013.1
20260902073122 45 224 2.0 4.0 0.00 0.00 0.00 66 1013.1
20260902072123 50 202 1.0 3.0 0.00 0.00 0.00 65 1013.0
20260902070123 52 225 2.0 3.0 0.00 0.00 0.00 59 1013.1
20260902065115 51 292 0.0 1.0 0.00 0.00 0.00 60 1013.0
20260902063215 52 270 0.0 0.0 0.00 0.00 0.00 59 1013.0
20260902062215 52 270 0.0 0.0 0.00 0.00 0.00 57 1013.0
20260902060215 53 270 0.0 0.0 0.00 0.00 0.00 56 1012.8
20260902055213 53 270 0.0 0.0 0.00 0.00 0.00 53 1012.6
20260902053214 44 180 0.0 0.0 0.00 0.00 0.00 52 1012.7
20260902051313 57 45 0.0 0.0 0.00 0.00 0.00 47 1012.6
20260902050315 60 247 0.0 0.0 0.00 0.00 0.00 45 1012.5
20260902043513 66 45 0.0 2.0 0.00 0.00 0.00 36 1012.3
20260902042514 69 348 2.0 4.0 0.00 0.00 0.00 33 1012.2
20260902041513 70 336 4.0 7.0 0.00 0.00 0.00 33 1012.1
20260902040514 67 296 5.0 8.0 0.00 0.00 0.00 35 1011.9
20260902035514 62 343 0.0 1.0 0.00 0.00 0.00 39 1011.8
20260902034517 63 155 0.0 0.0 0.00 0.00 0.00 38 1011.6
20260902033516 64 218 0.0 0.0 0.00 0.00 0.00 35 1011.5
20260902032516 65 213 1.0 3.0 0.00 0.00 0.00 33 1011.3
20260902031514 66 269 0.0 0.0 0.00 0.00 0.00 30 1011.0
20260902030613 63 223 3.0 4.0 0.00 0.00 0.00 27 1010.9
20260902025615 61 270 5.0 7.0 0.00 0.00 0.00 27 1010.8
20260902024613 58 277 3.0 6.0 0.00 0.00 0.00 27 1011.0
20260902023713 60 277 3.0 5.0 0.00 0.00 0.00 27 1010.8
20260902022716 59 284 3.0 4.0 0.00 0.00 0.00 27 1011.0
20260902021714 61 282 4.0 6.0 0.00 0.00 0.00 27 1010.8
20260902020813 67 292 2.0 3.0 0.00 0.00 0.00 27 1011.0
20260902015816 75 265 2.0 5.0 0.00 0.00 0.00 26 1011.0
20260902014814 76 256 5.0 8.0 0.00 0.00 0.00 26 1011.1
20260902013912 76 254 3.0 6.0 0.00 0.00 0.00 24 1011.2
20260902012916 77 248 3.0 6.0 0.00 0.00 0.00 26 1011.1
20260902011915 77 259 2.0 6.0 0.00 0.00 0.00 24 1011.0
20260902011014 78 259 3.0 6.0 0.00 0.00 0.00 24 1011.0
20260902010915 78 273 4.0 7.0 0.00 0.00 0.00 25 1011.0
20260902005915 80 267 6.0 12.0 0.00 0.00 0.00 25 1011.3
20260902005014 80 209 4.0 7.0 0.00 0.00 0.00 25 1011.2
20260902003917 80 245 0.0 0.0 0.00 0.00 0.00 25 1011.4
20260902002914 78 296 0.0 4.0 0.00 0.00 0.00 29 1011.4
20260902001914 78 84 5.0 7.0 0.00 0.00 0.00 41 1011.5
20260902000915 80 67 1.0 3.0 0.00 0.00 0.00 46 1011.4
20260901235923 70 61 2.0 4.0 0.00 0.00 0.00 34 1011.8